EW0609 Weather Reports


Display with metric or nautical units.
time (UTC)temp
F
wind
direction
speed
MPH
gust
MPH
rain 1hr
in
rain 24hr
in
rain mn
in
humidity
%
barometer
mb
20260502232817 67 106 1.0 4.0 0.00 0.00 0.00 34 1018.6
20260502231224 69 221 2.0 9.0 0.00 0.00 0.00 28 1018.6
20260502231113 69 219 4.0 7.0 0.00 0.00 0.00 31 1018.6
20260502230226 69 238 4.0 7.0 0.00 0.00 0.00 31 1018.6
20260502225724 69 199 3.0 10.0 0.00 0.00 0.00 33 1018.6
20260502225226 69 235 3.0 10.0 0.00 0.00 0.00 35 1018.6
20260502224724 69 250 2.0 10.0 0.00 0.00 0.00 32 1018.6
20260502224616 70 238 4.0 11.0 0.00 0.00 0.00 31 1018.6
20260502224028 73 226 4.0 10.0 0.00 0.01 0.00 24 1018.7
20260502223858 72 213 5.0 11.0 0.00 0.00 0.00 26 1018.8
20260502222724 74 161 5.0 10.0 0.00 0.01 0.00 23 1018.7
20260502222224 73 206 2.0 13.0 0.00 0.01 0.00 23 1018.7
20260502222113 73 152 5.0 13.0 0.00 0.01 0.00 22 1018.8
20260502221225 72 227 3.0 9.0 0.00 0.01 0.00 25 1019.0
20260502220724 73 248 2.0 9.0 0.00 0.01 0.00 25 1019.1
20260502220224 73 145 3.0 9.0 0.00 0.01 0.00 23 1019.2
20260502215723 73 142 2.0 5.0 0.00 0.01 0.00 21 1019.1
20260502215226 74 333 2.0 6.0 0.00 0.01 0.00 24 1019.2
20260502214724 73 17 4.0 10.0 0.00 0.01 0.00 25 1019.2
20260502214609 73 347 5.0 10.0 0.00 0.01 0.00 26 1019.3
20260502213724 72 41 1.0 12.0 0.00 0.01 0.00 24 1019.4
20260502213224 73 97 5.0 12.0 0.00 0.01 0.00 25 1019.4
20260502212724 73 226 4.0 11.0 0.00 0.01 0.00 24 1019.5
20260502212617 73 213 3.0 7.0 0.00 0.01 0.00 22 1019.6
20260502211725 72 323 0.0 6.0 0.00 0.01 0.00 25 1019.6
20260502211223 72 268 3.0 6.0 0.00 0.01 0.00 22 1019.8
20260502211107 72 134 3.0 6.0 0.00 0.01 0.00 21 1020.0
20260502210223 72 216 3.0 4.0 0.00 0.01 0.00 24 1020.1
20260502205725 71 25 2.0 6.0 0.00 0.01 0.00 30 1020.1
20260502205224 70 100 4.0 10.0 0.00 0.01 0.00 24 1020.2
20260502204724 71 120 4.0 10.0 0.00 0.01 0.00 23 1020.2
20260502204225 72 99 4.0 10.0 0.00 0.01 0.00 26 1020.3
20260502204113 72 272 3.0 10.0 0.00 0.01 0.00 25 1020.4
20260502203224 72 0 2.0 7.0 0.00 0.01 0.00 24 1020.3
20260502202724 73 0 2.0 7.0 0.00 0.01 0.00 26 1020.5
20260502202225 73 326 4.0 7.0 0.00 0.01 0.00 26 1020.5
20260502201724 72 1 2.0 6.0 0.00 0.01 0.00 27 1020.5
20260502201223 71 158 2.0 6.0 0.00 0.01 0.00 22 1020.5
20260502201111 70 261 2.0 7.0 0.00 0.01 0.00 29 1020.7
20260502200224 72 240 1.0 10.0 0.00 0.01 0.00 25 1020.6
20260502195725 74 309 4.0 10.0 0.00 0.01 0.00 21 1020.7
20260502195503 73 330 4.0 5.0 0.00 0.01 0.00 19 1020.9
20260502195352 73 357 5.0 9.0 0.00 0.01 0.00 21 1020.7
20260502194616 73 240 2.0 7.0 0.00 0.01 0.00 21 1020.7
20260502193723 72 140 0.0 9.0 0.00 0.01 0.00 21 1020.9
20260502193224 71 343 1.0 11.0 0.00 0.01 0.00 24 1021.0
20260502193119 73 102 4.0 11.0 0.00 0.01 0.00 21 1021.1
20260502192223 74 82 4.0 9.0 0.00 0.01 0.00 21 1021.1
20260502192106 72 31 2.0 9.0 0.00 0.01 0.00 22 1021.2
20260502191224 73 93 3.0 6.0 0.00 0.01 0.00 21 1021.2
20260502190724 72 86 3.0 5.0 0.00 0.01 0.00 20 1021.3
20260502190225 73 41 0.0 4.0 0.00 0.01 0.00 24 1021.4
20260502190114 71 299 2.0 5.0 0.00 0.01 0.00 25 1021.4
20260502185223 71 180 2.0 5.0 0.00 0.01 0.00 22 1021.5
20260502184723 73 337 1.0 7.0 0.00 0.01 0.00 24 1021.5
20260502184223 72 21 1.0 7.0 0.00 0.01 0.00 23 1021.5
20260502183723 72 149 2.0 5.0 0.00 0.01 0.00 22 1021.6
20260502183325 71 210 1.0 7.0 0.00 0.01 0.00 25 1021.7
20260502183224 71 16 1.0 4.0 0.00 0.01 0.00 26 1021.7
20260502182224 70 86 2.0 7.0 0.00 0.01 0.00 23 1021.7
20260502182119 71 141 3.0 9.0 0.00 0.01 0.00 27 1022.0
20260502181223 69 123 1.0 9.0 0.00 0.01 0.00 25 1022.0
20260502180724 69 175 1.0 9.0 0.00 0.01 0.00 26 1022.1
20260502180617 69 209 4.0 9.0 0.00 0.01 0.00 25 1022.0
20260502170223 69 324 2.0 11.0 0.00 0.01 0.00 38 1022.5
20260502164225 67 233 4.0 12.0 0.00 0.01 0.00 42 1022.5
20260502163723 67 248 5.0 12.0 0.00 0.01 0.00 38 1022.6
20260502163606 67 219 5.0 11.0 0.00 0.01 0.00 39 1022.6
20260502162723 67 314 3.0 7.0 0.00 0.01 0.00 41 1022.7
20260502162223 67 312 4.0 10.0 0.00 0.01 0.00 44 1022.6
20260502162008 66 341 4.0 12.0 0.00 0.01 0.00 42 1022.6
20260502161852 67 223 2.0 10.0 0.00 0.01 0.00 42 1022.6
20260502160724 65 341 5.0 12.0 0.00 0.01 0.00 44 1022.5
20260502160225 64 354 4.0 10.0 0.00 0.01 0.00 44 1022.5
20260502151723 60 204 6.0 13.0 0.00 0.01 0.00 50 1022.6
20260502151225 61 310 6.0 13.0 0.00 0.01 0.00 51 1022.6
20260502150725 60 345 3.0 10.0 0.00 0.01 0.00 53 1022.7
20260502150225 59 255 5.0 13.0 0.00 0.01 0.00 53 1022.6
20260502130724 47 264 3.0 6.0 0.00 0.01 0.00 75 1022.1
20260502130606 46 275 3.0 6.0 0.00 0.01 0.00 75 1022.2
20260502123724 43 293 4.0 6.0 0.00 0.01 0.00 79 1022.0
20260502123612 43 264 4.0 6.0 0.00 0.01 0.00 79 1021.7
20260502123112 43 266 3.0 5.0 0.00 0.01 0.00 80 1021.7
20260502122224 43 264 3.0 6.0 0.00 0.01 0.00 80 1021.7
20260502122118 43 274 3.0 6.0 0.00 0.01 0.00 80 1021.6
20260502121224 43 272 3.0 6.0 0.00 0.01 0.00 80 1021.5
20260502120723 42 276 3.0 5.0 0.00 0.01 0.00 81 1021.5
20260502120223 42 262 3.0 5.0 0.00 0.01 0.00 81 1021.5
20260502115725 42 252 3.0 6.0 0.00 0.01 0.00 81 1021.5
20260502115223 43 272 3.0 6.0 0.00 0.02 0.00 80 1021.5
20260502114724 43 244 3.0 6.0 0.00 0.02 0.00 80 1021.5
20260502114223 43 289 3.0 6.0 0.00 0.02 0.00 80 1021.5
20260502114112 43 243 3.0 6.0 0.00 0.02 0.00 80 1021.5
20260502113224 43 283 3.0 6.0 0.00 0.02 0.00 81 1021.4
20260502112724 43 254 3.0 5.0 0.00 0.02 0.00 81 1021.4
20260502112222 43 223 2.0 6.0 0.00 0.02 0.00 82 1021.4
20260502111725 43 274 4.0 6.0 0.00 0.02 0.00 82 1021.3
20260502111227 42 252 3.0 5.0 0.00 0.03 0.00 82 1021.3
20260502110725 42 251 2.0 5.0 0.00 0.03 0.00 82 1021.3
20260502110223 42 266 1.0 5.0 0.00 0.04 0.00 83 1021.4
20260502110111 42 217 2.0 5.0 0.00 0.04 0.00 83 1021.5
20260502105223 42 257 2.0 4.0 0.00 0.04 0.00 82 1021.4
20260502104722 43 272 3.0 5.0 0.00 0.04 0.00 82 1021.5
20260502104225 43 228 2.0 6.0 0.00 0.04 0.00 82 1021.5
20260502104114 43 248 4.0 6.0 0.00 0.04 0.00 82 1021.5
20260502103609 43 247 2.0 5.0 0.00 0.04 0.00 83 1021.4
20260502102724 43 268 3.0 5.0 0.00 0.04 0.00 83 1021.5
20260502102223 42 261 3.0 5.0 0.00 0.04 0.00 85 1021.4
20260502101723 42 257 2.0 4.0 0.00 0.04 0.00 85 1021.5
20260502101614 42 252 1.0 3.0 0.00 0.04 0.00 85 1021.4
20260502101108 42 274 1.0 3.0 0.00 0.04 0.00 85 1021.5
20260502100224 42 261 2.0 3.0 0.00 0.04 0.00 84 1021.5
20260502100111 42 265 1.0 3.0 0.00 0.04 0.00 83 1021.3
20260502090724 42 262 1.0 2.0 0.00 0.04 0.00 84 1021.2
20260502090611 43 271 1.0 2.0 0.00 0.04 0.00 84 1021.2
20260502071225 46 259 2.0 6.0 0.00 0.04 0.00 78 1021.6
20260502070724 47 268 3.0 7.0 0.00 0.04 0.00 78 1021.7
20260502070222 46 261 2.0 7.0 0.00 0.04 0.00 79 1021.6
20260502065722 46 292 3.0 7.0 0.00 0.04 0.00 79 1021.6
20260502065618 46 271 4.0 7.0 0.00 0.04 0.00 80 1021.7
20260502064723 46 266 2.0 5.0 0.00 0.04 0.00 80 1021.7
20260502064224 45 271 2.0 5.0 0.00 0.04 0.00 81 1021.6
20260502063723 45 262 2.0 5.0 0.00 0.04 0.00 81 1021.7
20260502063612 45 276 3.0 4.0 0.00 0.04 0.00 80 1021.9
20260502062723 45 283 2.0 5.0 0.00 0.04 0.00 80 1021.9
20260502062222 45 275 3.0 6.0 0.00 0.04 0.00 81 1021.7
20260502061959 44 279 0.0 4.0 0.00 0.04 0.00 83 1021.7
20260502061853 45 281 3.0 6.0 0.00 0.04 0.00 82 1021.9
20260502060724 44 274 2.0 4.0 0.00 0.04 0.00 83 1021.9
20260502060609 44 265 1.0 3.0 0.00 0.04 0.00 82 1021.7
20260502055724 44 262 1.0 4.0 0.00 0.04 0.00 82 1022.0
20260502055222 44 269 2.0 4.0 0.00 0.04 0.00 82 1021.9
20260502054725 44 269 2.0 3.0 0.00 0.04 0.00 82 1021.7
20260502054224 44 261 1.0 3.0 0.00 0.04 0.00 82 1021.7
20260502053722 44 240 0.0 1.0 0.00 0.04 0.00 82 1021.7
20260502053611 44 266 0.0 0.0 0.00 0.04 0.00 82 1021.7
20260502053011 44 266 0.0 2.0 0.00 0.04 0.00 81 1021.7
20260502052855 44 266 0.0 0.0 0.00 0.04 0.00 82 1021.9
20260502051724 45 266 0.0 3.0 0.00 0.04 0.00 81 1021.7
20260502051223 45 268 2.0 3.0 0.00 0.04 0.00 81 1021.6
20260502050724 45 278 2.0 3.0 0.00 0.04 0.00 82 1021.7
20260502050611 45 295 2.0 3.0 0.00 0.04 0.00 82 1021.7
20260502050119 44 305 2.0 3.0 0.00 0.04 0.04 83 1021.6
20260502045222 44 289 2.0 3.0 0.00 0.04 0.04 83 1021.6
20260502044722 44 290 0.0 0.0 0.00 0.04 0.04 84 1021.6
20260502044225 44 282 0.0 0.0 0.00 0.04 0.04 84 1021.5
20260502043725 44 286 0.0 0.0 0.00 0.04 0.04 84 1021.5
20260502043222 44 290 0.0 0.0 0.00 0.04 0.04 83 1021.5
20260502042722 44 290 0.0 0.0 0.00 0.04 0.04 83 1021.4
20260502042222 44 290 0.0 0.0 0.00 0.04 0.04 83 1021.4
20260502041721 44 290 0.0 0.0 0.00 0.04 0.04 83 1021.4
20260502041223 45 310 0.0 0.0 0.00 0.04 0.04 82 1021.3
20260502041109 45 319 0.0 0.0 0.00 0.04 0.04 82 1021.3
20260502040607 45 319 0.0 0.0 0.00 0.04 0.04 82 1021.3
20260502040107 45 319 0.0 0.0 0.00 0.04 0.04 82 1021.2
20260502035222 45 319 0.0 0.0 0.00 0.04 0.04 81 1021.2
20260502034722 45 319 0.0 0.0 0.00 0.04 0.04 80 1021.2
20260502034224 46 319 0.0 0.0 0.00 0.04 0.04 79 1021.4
20260502033722 46 319 0.0 0.0 0.00 0.04 0.04 79 1021.4
20260502033606 46 319 0.0 0.0 0.00 0.04 0.04 78 1021.2
20260502033106 46 319 0.0 0.0 0.00 0.04 0.04 77 1021.3
20260502032222 46 319 0.0 0.0 0.00 0.04 0.04 77 1021.2
20260502031722 47 319 0.0 3.0 0.00 0.04 0.04 76 1021.2
20260502031222 47 319 0.0 3.0 0.00 0.04 0.04 76 1021.3
20260502030722 47 327 1.0 2.0 0.00 0.04 0.04 76 1021.2
20260502030605 47 334 0.0 3.0 0.00 0.04 0.04 75 1021.2
20260502025722 48 354 1.0 3.0 0.00 0.04 0.04 74 1021.1
20260502025222 48 303 1.0 3.0 0.00 0.04 0.04 74 1021.1
20260502025100 48 345 0.0 2.0 0.00 0.04 0.04 73 1021.1
20260502024223 49 324 0.0 3.0 0.00 0.04 0.04 73 1021.1
20260502023723 49 355 1.0 3.0 0.00 0.04 0.04 73 1021.1
20260502023222 49 330 0.0 4.0 0.00 0.04 0.04 72 1021.0
20260502022724 49 340 1.0 4.0 0.00 0.04 0.04 72 1021.1
20260502022223 50 326 1.0 5.0 0.00 0.04 0.04 71 1020.9
20260502021721 50 302 1.0 5.0 0.00 0.04 0.04 71 1020.9
20260502021222 50 336 3.0 5.0 0.00 0.04 0.04 70 1020.9
20260502020723 51 337 2.0 6.0 0.00 0.04 0.04 70 1020.7
20260502020614 51 333 3.0 6.0 0.00 0.04 0.04 69 1020.6
20260502015723 51 353 2.0 5.0 0.00 0.04 0.04 69 1020.5
20260502015222 51 337 0.0 5.0 0.00 0.04 0.04 68 1020.4
20260502014723 52 314 1.0 4.0 0.00 0.04 0.04 68 1020.4
20260502014222 51 0 2.0 6.0 0.00 0.04 0.04 68 1020.3
20260502013723 51 321 3.0 6.0 0.00 0.04 0.04 68 1020.2
20260502013223 52 341 1.0 6.0 0.00 0.04 0.04 68 1020.2
20260502012722 52 345 1.0 6.0 0.00 0.04 0.04 67 1020.1
20260502012222 52 351 3.0 10.0 0.00 0.04 0.04 67 1020.0
20260502012114 52 317 3.0 10.0 0.00 0.04 0.04 67 1020.0
20260502011222 52 0 5.0 10.0 0.00 0.04 0.04 67 1019.7
20260502010723 52 0 4.0 9.0 0.00 0.04 0.04 67 1019.8
20260502010613 53 344 4.0 9.0 0.00 0.04 0.04 66 1019.7
20260502005722 53 343 5.0 11.0 0.00 0.04 0.04 66 1019.7
20260502005221 53 337 6.0 11.0 0.00 0.04 0.04 65 1019.7
20260502004724 54 326 3.0 9.0 0.00 0.04 0.04 65 1019.6
20260502004222 54 333 4.0 11.0 0.00 0.04 0.04 65 1019.6
20260502003723 54 345 5.0 11.0 0.00 0.04 0.04 65 1019.6
20260502003223 54 353 4.0 10.0 0.00 0.04 0.04 64 1019.5
20260502002724 55 321 4.0 9.0 0.00 0.04 0.04 64 1019.6
20260502002222 55 345 4.0 9.0 0.00 0.04 0.04 63 1019.5
20260502001723 55 338 4.0 10.0 0.00 0.04 0.04 63 1019.5
20260502001222 55 357 5.0 10.0 0.00 0.04 0.04 63 1019.5
20260502000724 55 348 3.0 9.0 0.00 0.04 0.04 64 1019.5
20260502000222 55 337 4.0 7.0 0.00 0.04 0.04 64 1019.5
20260501235725 55 282 4.0 9.0 0.00 0.04 0.04 63 1019.5
20260501235357 56 357 2.0 6.0 0.00 0.04 0.04 63 1019.5
20260501235347 55 348 4.0 9.0 0.00 0.04 0.04 64 1019.5
20260501235307 55 341 4.0 9.0 0.00 0.04 0.04 64 1019.5
20260501233722 55 355 4.0 6.0 0.00 0.04 0.04 64 1019.4
20260501233222 55 334 3.0 5.0 0.01 0.04 0.04 64 1019.3